sat.trackr.live / text

‹ back to catalog

STARLINK-4582

NORAD 53569 · 2022-101AU

PAYLOAD ACTIVE UNKNOWN

§ Identity

Operator
Country
US
Launch date
2022-08-19
Launch site
AFETR
Launch vehicle
Mass (kg)
RCS (m²)

Purposes: comms

External: N2YO · Heavens-Above · Gunter

§ Orbital elements

Epoch: 2026-05-25T04:32:36.099744Z

Period
95.44 min
Inclination
53.2133°
Eccentricity
0.0001012
Mean motion
15.08846044 rev/d
Perigee alt
539.0 km
Apogee alt
540.4 km
Semi-major
6,917.9 km
B*
1.3653e-7
RAAN
70.7237°
Arg perigee
125.6381°
Mean anomaly
234.4705°
Rev number
20,866

§ Raw data

STARLINK-45821 53569U 22101AU  26145.18930671 -.00000286  00000+0  13653-6 0  99972 53569  53.2133  70.7237 0001012 125.6381 234.4705 15.08846044208660

JSON: /api/v1/satellites/53569 · /tle

For live sub-satellite position, see the globe view (requires WebGL).

§ Visibility from observer

Set your observer location to see the next 7 days of passes ≥ 10°. The values pass through the URL so the page stays shareable.

No JS? Fill the form by hand. The geolocation button needs JavaScript.